Location: Albuquerque Trailhead
(34.7934°N, 106.3736°W)
Time: 14:00:02
(UTC+00:00)

Aureole 3 Rocket - Pass Details

Date: 20 June 2021
Orbit: 399 x 1739 km, 82.5° (Epoch: 26 July)

Event Time Altitude Azimuth Distance (km) Brightness Sun altitude
Rises 09:29:02 0° 341° (NNW) 2,803 6.9 -22.7°
Reaches altitude 10° 09:31:03 10° 333° (NNW) 2,040 6.0 -22.5°
Maximum altitude 09:35:15 39° 265° (W) 1,174 4.1 -22.0°
Enters shadow 09:35:19 39° 263° (W) 1,179 4.1 -22.0°
